| time (UTC) | temp F | wind direction | speed knots | gust knots | rain 1hr in | rain 24hr in | rain mn in | humidity % | barometer mb |
| 20260906104504 | 66 | 55 | 0.0 | 0.0 | 0.00 | 0.00 | 0.00 | 86 | 1012.5 |
| 20260906101503 | 66 | 55 | 0.0 | 0.0 | 0.00 | 0.08 | 0.00 | 86 | 1012.5 |
| 20260906100004 | 66 | 55 | 0.0 | 0.0 | 0.00 | 0.09 | 0.00 | 86 | 1012.3 |
| 20260906094504 | 66 | 55 | 0.0 | 0.0 | 0.00 | 0.09 | 0.00 | 86 | 1012.2 |
| 20260906093003 | 67 | 30 | 0.0 | 0.0 | 0.00 | 0.10 | 0.00 | 87 | 1012.0 |
| 20260906091504 | 67 | 30 | 0.0 | 0.0 | 0.00 | 0.10 | 0.00 | 87 | 1012.2 |
| 20260906090004 | 67 | 30 | 0.0 | 0.0 | 0.00 | 0.10 | 0.00 | 88 | 1012.0 |
| 20260906083004 | 68 | 29 | 0.0 | 0.0 | 0.00 | 0.10 | 0.00 | 89 | 1011.9 |
| 20260906081504 | 68 | 29 | 0.0 | 0.9 | 0.00 | 0.10 | 0.00 | 89 | 1011.9 |
| 20260906080004 | 68 | 355 | 0.0 | 0.0 | 0.00 | 0.10 | 0.00 | 90 | 1011.8 |
| 20260906074503 | 68 | 355 | 0.0 | 0.0 | 0.00 | 0.10 | 0.00 | 90 | 1011.7 |
| 20260906073004 | 69 | 355 | 0.0 | 0.9 | 0.00 | 0.10 | 0.00 | 90 | 1011.7 |
| 20260906071504 | 69 | 355 | 0.0 | 0.9 | 0.00 | 0.10 | 0.00 | 91 | 1011.8 |
| 20260906064504 | 70 | 355 | 0.0 | 0.0 | 0.00 | 0.10 | 0.00 | 91 | 1011.9 |
| 20260906063004 | 70 | 355 | 0.0 | 0.9 | 0.00 | 0.10 | 0.00 | 91 | 1011.9 |
| 20260906061504 | 71 | 5 | 0.0 | 0.0 | 0.00 | 0.10 | 0.00 | 91 | 1012.1 |
| 20260906060004 | 71 | 5 | 0.0 | 0.0 | 0.00 | 0.10 | 0.00 | 91 | 1012.0 |
| 20260906054504 | 71 | 5 | 0.0 | 0.0 | 0.00 | 0.10 | 0.00 | 91 | 1011.6 |
| 20260906053004 | 72 | 5 | 0.0 | 0.0 | 0.00 | 0.10 | 0.00 | 91 | 1011.6 |
| 20260906050004 | 72 | 5 | 0.0 | 0.0 | 0.00 | 0.10 | 0.00 | 91 | 1011.4 |
| 20260906044504 | 73 | 5 | 0.0 | 0.0 | 0.00 | 0.10 | 0.00 | 91 | 1011.2 |
| 20260906043004 | 73 | 5 | 0.0 | 0.0 | 0.00 | 0.10 | 0.00 | 91 | 1011.0 |
| 20260906041504 | 74 | 5 | 0.0 | 0.0 | 0.00 | 0.10 | 0.00 | 91 | 1010.8 |
| 20260906040004 | 74 | 355 | 0.0 | 0.0 | 0.00 | 0.10 | 0.00 | 91 | 1010.9 |
| 20260906033003 | 74 | 355 | 0.0 | 0.0 | 0.00 | 0.10 | 0.10 | 91 | 1010.9 |
| 20260906024503 | 75 | 355 | 0.0 | 0.0 | 0.00 | 0.10 | 0.10 | 90 | 1011.1 |
| 20260906023004 | 75 | 355 | 0.0 | 0.0 | 0.00 | 0.10 | 0.10 | 90 | 1011.2 |
| 20260906021503 | 75 | 355 | 0.0 | 0.0 | 0.00 | 0.10 | 0.10 | 90 | 1010.9 |
| 20260906020004 | 76 | 355 | 0.0 | 0.0 | 0.00 | 0.10 | 0.10 | 89 | 1011.0 |
| 20260906014506 | 76 | 355 | 0.0 | 0.0 | 0.00 | 0.10 | 0.10 | 89 | 1010.9 |
| 20260906013004 | 77 | 355 | 0.0 | 0.0 | 0.00 | 0.10 | 0.10 | 88 | 1010.8 |
| 20260906011503 | 77 | 355 | 0.0 | 0.0 | 0.00 | 0.10 | 0.10 | 87 | 1010.6 |
| 20260906010004 | 77 | 355 | 0.0 | 0.0 | 0.00 | 0.10 | 0.10 | 86 | 1010.3 |
| 20260906004504 | 78 | 355 | 0.0 | 0.0 | 0.00 | 0.10 | 0.10 | 84 | 1010.2 |
| 20260906001504 | 78 | 355 | 0.0 | 0.0 | 0.00 | 0.10 | 0.10 | 83 | 1009.9 |
| 20260906000004 | 78 | 355 | 0.0 | 1.7 | 0.00 | 0.10 | 0.10 | 83 | 1009.8 |
| 20260905233004 | 80 | 57 | 0.0 | 0.0 | 0.00 | 0.10 | 0.10 | 84 | 1010.2 |
| 20260905231504 | 81 | 57 | 0.0 | 0.0 | 0.00 | 0.10 | 0.10 | 84 | 1009.6 |
| 20260905230004 | 81 | 57 | 0.0 | 0.0 | 0.00 | 0.10 | 0.10 | 84 | 1009.9 |
| 20260905224504 | 81 | 57 | 0.0 | 0.0 | 0.00 | 0.10 | 0.10 | 83 | 1009.5 |
| 20260905223004 | 82 | 57 | 0.0 | 0.0 | 0.00 | 0.10 | 0.10 | 82 | 1009.7 |
| 20260905221504 | 83 | 57 | 0.0 | 0.0 | 0.00 | 0.10 | 0.10 | 81 | 1009.5 |
| 20260905220004 | 84 | 57 | 0.0 | 0.0 | 0.00 | 0.10 | 0.10 | 79 | 1009.3 |
| 20260905214504 | 85 | 63 | 0.0 | 0.0 | 0.00 | 0.10 | 0.10 | 77 | 1009.1 |
| 20260905211504 | 87 | 63 | 0.0 | 0.9 | 0.00 | 0.10 | 0.10 | 74 | 1009.4 |
| 20260905204515 | 88 | 69 | 0.0 | 0.9 | 0.00 | 0.10 | 0.10 | 72 | 1009.8 |
| 20260905203004 | 88 | 62 | 0.0 | 2.6 | 0.00 | 0.10 | 0.10 | 69 | 1009.7 |
| 20260905201504 | 89 | 69 | 0.0 | 0.0 | 0.00 | 0.10 | 0.10 | 68 | 1009.8 |
| 20260905200005 | 88 | 42 | 0.0 | 0.9 | 0.00 | 0.10 | 0.10 | 66 | 1010.0 |
| 20260905193004 | 88 | 57 | 0.0 | 0.9 | 0.00 | 0.10 | 0.10 | 70 | 1010.5 |
| 20260905191504 | 87 | 51 | 0.0 | 2.6 | 0.00 | 0.10 | 0.10 | 68 | 1010.7 |
| 20260905190004 | 87 | 81 | 0.0 | 4.3 | 0.00 | 0.10 | 0.10 | 68 | 1011.1 |
| 20260905183004 | 86 | 51 | 0.0 | 1.7 | 0.00 | 0.10 | 0.10 | 71 | 1011.4 |
| 20260905180004 | 84 | 74 | 0.0 | 0.9 | 0.00 | 0.10 | 0.10 | 71 | 1011.3 |
| 20260905174504 | 84 | 105 | 0.0 | 0.9 | 0.00 | 0.10 | 0.10 | 74 | 1011.3 |
| 20260905173004 | 84 | 165 | 0.0 | 0.0 | 0.00 | 0.10 | 0.10 | 72 | 1011.1 |
| 20260905171504 | 85 | 189 | 0.0 | 0.0 | 0.00 | 0.10 | 0.10 | 72 | 1011.3 |
| 20260905170004 | 85 | 245 | 0.0 | 1.7 | 0.00 | 0.10 | 0.10 | 70 | 1011.1 |
| 20260905161503 | 83 | 232 | 0.0 | 0.9 | 0.00 | 0.10 | 0.10 | 73 | 1011.4 |
| 20260905160003 | 81 | 276 | 0.0 | 0.0 | 0.00 | 0.10 | 0.10 | 73 | 1011.5 |
| 20260905154504 | 80 | 62 | 0.0 | 0.9 | 0.00 | 0.10 | 0.10 | 77 | 1011.9 |
| 20260905153004 | 79 | 135 | 0.0 | 1.7 | 0.00 | 0.10 | 0.10 | 77 | 1011.7 |
| 20260905151504 | 78 | 90 | 0.0 | 1.7 | 0.00 | 0.10 | 0.10 | 80 | 1011.6 |
| 20260905150004 | 76 | 80 | 0.0 | 1.7 | 0.00 | 0.10 | 0.10 | 79 | 1011.6 |
| 20260905144504 | 75 | 81 | 0.9 | 2.6 | 0.00 | 0.10 | 0.10 | 84 | 1011.3 |
| 20260905143003 | 74 | 252 | 0.0 | 2.6 | 0.00 | 0.10 | 0.10 | 86 | 1010.7 |
| 20260905141504 | 73 | 241 | 0.9 | 2.6 | 0.00 | 0.10 | 0.10 | 87 | 1010.6 |
| 20260905140004 | 72 | 57 | 0.0 | 0.0 | 0.00 | 0.10 | 0.10 | 91 | 1010.9 |
| 20260905134504 | 70 | 57 | 0.0 | 0.0 | 0.00 | 0.10 | 0.10 | 93 | 1011.2 |
| 20260905133004 | 70 | 57 | 0.0 | 0.0 | 0.00 | 0.10 | 0.10 | 93 | 1011.6 |
| 20260905131504 | 69 | 57 | 0.0 | 0.0 | 0.00 | 0.10 | 0.10 | 93 | 1012.1 |
| 20260905130004 | 69 | 57 | 0.0 | 0.0 | 0.00 | 0.10 | 0.10 | 93 | 1012.5 |
| 20260905124504 | 69 | 57 | 0.0 | 0.0 | 0.00 | 0.10 | 0.10 | 94 | 1012.7 |
| 20260905121503 | 68 | 57 | 0.0 | 0.0 | 0.00 | 0.10 | 0.10 | 93 | 1012.9 |
| 20260905120004 | 68 | 57 | 0.0 | 0.0 | 0.00 | 0.10 | 0.10 | 93 | 1012.6 |
| 20260905114504 | 68 | 57 | 0.0 | 0.0 | 0.00 | 0.10 | 0.10 | 93 | 1012.6 |
| 20260905113004 | 68 | 59 | 0.0 | 0.0 | 0.00 | 0.10 | 0.10 | 93 | 1012.8 |
| 20260905111504 | 68 | 59 | 0.0 | 0.0 | 0.08 | 0.10 | 0.10 | 92 | 1012.9 |
| 20260905110004 | 68 | 59 | 0.0 | 0.0 | 0.09 | 0.10 | 0.10 | 92 | 1013.1 |